When you browse on this site, cookies collect data to enhance your experience and personalize the content and advertising you see.
Visit our Privacy Policy to learn more. By continuing to use the site, you agree to this use of cookies and data.
  • Em Portugal
  • Lista de países
  • Para 7 dias
  • Temperatura da água
  • Mapas de satélite
  • Mapa do tempo
  • Widgets de tempo
  • user-avatar
    Iniciar Sessão

    Previsão horária em Vily

    Hoje, 26 Junho, Quarta-feira

    Tempo Temperatura Precipitação Vento Pressão Humidade
    00:00 +17°C° 0 mm 2 m/s 756 mmHg 82%
    01:00 +17°C° 0 mm 2 m/s 756 mmHg 84%
    02:00 +16°C° 0 mm 2 m/s 756 mmHg 83%
    03:00 +17°C° 0 mm 2 m/s 755 mmHg 83%
    04:00 +17°C° 0 mm 3 m/s 755 mmHg 83%
    05:00 +17°C° 0 mm 3 m/s 755 mmHg 82%
    06:00 +18°C° 0 mm 3 m/s 754 mmHg 79%
    07:00 +20°C° 0 mm 3 m/s 754 mmHg 76%
    08:00 +21°C° 0 mm 3 m/s 754 mmHg 73%
    09:00 +22°C° 0 mm 3 m/s 753 mmHg 70%
    10:00 +25°C° 0 mm 3 m/s 753 mmHg 67%
    11:00 +26°C° 0 mm 4 m/s 753 mmHg 64%
    12:00 +26°C° 0.1 mm 4 m/s 752 mmHg 63%
    13:00 +27°C° 0.1 mm 4 m/s 752 mmHg 62%
    14:00 +27°C° 0.1 mm 4 m/s 751 mmHg 61%
    15:00 +27°C° 0.6 mm 4 m/s 750 mmHg 69%
    16:00 +26°C° 0.6 mm 3 m/s 750 mmHg 77%
    17:00 +25°C° 0.6 mm 3 m/s 749 mmHg 84%
    18:00 +25°C° 0.9 mm 3 m/s 748 mmHg 87%
    19:00 +24°C° 0.9 mm 2 m/s 748 mmHg 90%
    20:00 +23°C° 0.9 mm 2 m/s 747 mmHg 94%
    21:00 +21°C° 0.8 mm 2 m/s 747 mmHg 95%
    22:00 +21°C° 0.8 mm 2 m/s 746 mmHg 95%
    23:00 +21°C° 0.8 mm 2 m/s 745 mmHg 96%

    Amanhã, 27 Junho, Quinta-feira

    Tempo Temperatura Precipitação Vento Pressão Humidade
    00:00 +20°C° 0.6 mm 2 m/s 744 mmHg 97%
    01:00 +20°C° 0.6 mm 2 m/s 744 mmHg 97%
    02:00 +20°C° 0.6 mm 2 m/s 743 mmHg 98%
    03:00 +20°C° 0.9 mm 2 m/s 742 mmHg 97%
    04:00 +20°C° 0.9 mm 3 m/s 741 mmHg 97%
    05:00 +20°C° 0.9 mm 3 m/s 740 mmHg 97%
    06:00 +21°C° 0.6 mm 4 m/s 739 mmHg 94%
    07:00 +22°C° 0.6 mm 5 m/s 739 mmHg 90%
    08:00 +22°C° 0.6 mm 6 m/s 738 mmHg 87%
    09:00 +22°C° 0.1 mm 6 m/s 738 mmHg 83%
    10:00 +22°C° 0.1 mm 6 m/s 738 mmHg 79%
    11:00 +22°C° 0.1 mm 6 m/s 738 mmHg 75%
    12:00 +22°C° 0.4 mm 7 m/s 738 mmHg 77%
    13:00 +21°C° 0.4 mm 7 m/s 738 mmHg 79%
    14:00 +20°C° 0.4 mm 8 m/s 738 mmHg 81%
    15:00 +18°C° 0.1 mm 7 m/s 738 mmHg 79%
    16:00 +18°C° 0.1 mm 7 m/s 738 mmHg 77%
    17:00 +17°C° 0.1 mm 6 m/s 739 mmHg 74%
    18:00 +16°C° 0.1 mm 6 m/s 739 mmHg 78%
    19:00 +16°C° 0.1 mm 6 m/s 739 mmHg 81%
    20:00 +15°C° 0.1 mm 6 m/s 739 mmHg 84%
    21:00 +15°C° 0 mm 6 m/s 739 mmHg 84%
    22:00 +14°C° 0 mm 6 m/s 739 mmHg 85%
    23:00 +14°C° 0 mm 6 m/s 739 mmHg 85%

    Depois de amanhã, 28 Junho, Sexta-feira

    Tempo Temperatura Precipitação Vento Pressão Humidade
    00:00 +13°C° 0 mm 6 m/s 739 mmHg 83%
    01:00 +13°C° 0 mm 6 m/s 739 mmHg 82%
    02:00 +11°C° 0 mm 6 m/s 739 mmHg 80%
    03:00 +11°C° 0 mm 6 m/s 739 mmHg 79%
    04:00 +11°C° 0 mm 7 m/s 739 mmHg 79%
    05:00 +11°C° 0 mm 7 m/s 739 mmHg 78%
    06:00 +12°C° 0 mm 7 m/s 739 mmHg 78%
    07:00 +12°C° 0 mm 7 m/s 739 mmHg 79%
    08:00 +12°C° 0 mm 7 m/s 739 mmHg 79%
    09:00 +14°C° 0 mm 7 m/s 739 mmHg 75%
    10:00 +14°C° 0 mm 7 m/s 740 mmHg 70%
    11:00 +15°C° 0 mm 7 m/s 740 mmHg 66%
    12:00 +16°C° 0.1 mm 8 m/s 740 mmHg 64%
    13:00 +16°C° 0.1 mm 8 m/s 741 mmHg 63%
    14:00 +17°C° 0.1 mm 8 m/s 741 mmHg 61%
    15:00 +17°C° 0.1 mm 8 m/s 741 mmHg 59%
    16:00 +17°C° 0.1 mm 7 m/s 741 mmHg 57%
    17:00 +18°C° 0.1 mm 7 m/s 741 mmHg 55%
    18:00 +16°C° 0.1 mm 6 m/s 741 mmHg 58%
    19:00 +15°C° 0.1 mm 5 m/s 742 mmHg 62%
    20:00 +14°C° 0.1 mm 5 m/s 742 mmHg 65%
    21:00 +13°C° 0 mm 5 m/s 742 mmHg 63%
    22:00 +12°C° 0 mm 5 m/s 742 mmHg 60%
    23:00 +10°C° 0 mm 5 m/s 743 mmHg 57%

    29 Junho, Sábado

    Tempo Temperatura Precipitação Vento Pressão Humidade
    00:00 +9°C° 0 mm 5 m/s 743 mmHg 58%
    01:00 +9°C° 0 mm 5 m/s 743 mmHg 59%
    02:00 +9°C° 0 mm 5 m/s 743 mmHg 59%
    03:00 +8°C° 0 mm 5 m/s 743 mmHg 61%
    04:00 +8°C° 0 mm 5 m/s 743 mmHg 63%
    05:00 +8°C° 0 mm 5 m/s 743 mmHg 64%
    06:00 +10°C° 0 mm 6 m/s 744 mmHg 60%
    07:00 +11°C° 0 mm 7 m/s 744 mmHg 56%
    08:00 +14°C° 0 mm 7 m/s 744 mmHg 52%
    09:00 +15°C° 0 mm 7 m/s 744 mmHg 50%
    10:00 +16°C° 0 mm 7 m/s 744 mmHg 48%
    11:00 +17°C° 0 mm 7 m/s 744 mmHg 45%
    12:00 +18°C° 0 mm 7 m/s 744 mmHg 45%
    13:00 +18°C° 0 mm 7 m/s 744 mmHg 44%
    14:00 +20°C° 0 mm 7 m/s 743 mmHg 44%
    15:00 +20°C° 0 mm 6 m/s 744 mmHg 45%
    16:00 +20°C° 0 mm 6 m/s 744 mmHg 46%
    17:00 +19°C° 0 mm 5 m/s 744 mmHg 48%
    18:00 +18°C° 0 mm 4 m/s 744 mmHg 56%
    19:00 +17°C° 0 mm 4 m/s 744 mmHg 64%
    20:00 +14°C° 0 mm 3 m/s 744 mmHg 72%
    21:00 +13°C° 0 mm 3 m/s 745 mmHg 78%
    22:00 +13°C° 0 mm 3 m/s 745 mmHg 84%
    23:00 +12°C° 0 mm 3 m/s 745 mmHg 90%

    30 Junho, Domingo

    Tempo Temperatura Precipitação Vento Pressão Humidade
    00:00 +11°C° 0 mm 3 m/s 745 mmHg 92%
    01:00 +11°C° 0 mm 3 m/s 746 mmHg 94%
    02:00 +11°C° 0 mm 3 m/s 746 mmHg 95%
    03:00 +11°C° 0 mm 3 m/s 746 mmHg 94%
    04:00 +11°C° 0 mm 3 m/s 746 mmHg 94%
    05:00 +12°C° 0 mm 3 m/s 746 mmHg 93%
    06:00 +13°C° 0 mm 3 m/s 747 mmHg 86%
    07:00 +16°C° 0 mm 3 m/s 747 mmHg 79%
    08:00 +18°C° 0 mm 3 m/s 747 mmHg 71%
    09:00 +19°C° 0 mm 4 m/s 747 mmHg 66%
    10:00 +20°C° 0 mm 4 m/s 747 mmHg 61%
    11:00 +22°C° 0 mm 5 m/s 748 mmHg 56%
    12:00 +22°C° 0 mm 4 m/s 747 mmHg 55%
    13:00 +23°C° 0 mm 4 m/s 747 mmHg 54%
    14:00 +25°C° 0 mm 4 m/s 747 mmHg 52%
    15:00 +25°C° 0 mm 3 m/s 747 mmHg 54%
    16:00 +25°C° 0 mm 3 m/s 747 mmHg 56%
    17:00 +25°C° 0 mm 2 m/s 747 mmHg 57%
    18:00 +24°C° 0 mm 2 m/s 747 mmHg 64%
    19:00 +21°C° 0 mm 2 m/s 746 mmHg 70%
    20:00 +20°C° 0 mm 2 m/s 746 mmHg 77%
    21:00 +19°C° 0 mm 2 m/s 746 mmHg 81%
    22:00 +18°C° 0 mm 3 m/s 746 mmHg 85%
    23:00 +17°C° 0 mm 3 m/s 746 mmHg 89%

    1 Julho, Segunda-feira

    Tempo Temperatura Precipitação Vento Pressão Humidade
    00:00 +17°C° 0 mm 3 m/s 746 mmHg 90%
    01:00 +17°C° 0 mm 3 m/s 746 mmHg 91%
    02:00 +17°C° 0 mm 3 m/s 745 mmHg 92%
    03:00 +17°C° 0 mm 3 m/s 745 mmHg 90%
    04:00 +17°C° 0 mm 4 m/s 744 mmHg 89%
    05:00 +17°C° 0 mm 4 m/s 744 mmHg 88%
    06:00 +19°C° 0 mm 4 m/s 744 mmHg 82%
    07:00 +21°C° 0 mm 4 m/s 743 mmHg 77%
    08:00 +23°C° 0 mm 4 m/s 743 mmHg 71%
    09:00 +25°C° 0 mm 4 m/s 743 mmHg 68%
    10:00 +26°C° 0 mm 4 m/s 743 mmHg 64%
    11:00 +28°C° 0 mm 4 m/s 742 mmHg 60%
    12:00 +27°C° 0.6 mm 5 m/s 742 mmHg 66%
    13:00 +27°C° 0.6 mm 5 m/s 742 mmHg 72%
    14:00 +26°C° 0.6 mm 5 m/s 741 mmHg 78%
    15:00 +26°C° 0.4 mm 5 m/s 741 mmHg 71%
    16:00 +26°C° 0.4 mm 5 m/s 741 mmHg 65%
    17:00 +26°C° 0.4 mm 4 m/s 741 mmHg 58%
    18:00 +25°C° 0 mm 4 m/s 741 mmHg 65%
    19:00 +22°C° 0 mm 3 m/s 742 mmHg 71%
    20:00 +20°C° 0 mm 3 m/s 742 mmHg 77%
    21:00 +19°C° 0 mm 3 m/s 742 mmHg 80%
    22:00 +18°C° 0 mm 3 m/s 742 mmHg 83%
    23:00 +17°C° 0 mm 3 m/s 742 mmHg 85%
    Mostrar mais